QPF
0.00 0.00 0.00 0.00 0.00 0.00 0.00 0.00 0.00 0.00 0.00 0.00 0.00 0.00 0.00 0.00 0.00 0.00 0.00 0.00 0.00 0.00 0.00 0.00 0.00 0.00 0.00 0.00 0.00 0.00 0.00 0.00 0.00 0.00 0.00 0.00 0.00 0.00 0.00 0.00 0.00 0.00 0.01 0.04 0.05 0.02 0.00 0.00 0.00
0.00 0.00 0.00 0.00 0.00 0.00 0.00 0.00 0.00 0.00 0.00 0.00 0.00 0.00 0.00 0.00 0.00 0.00 0.00 0.00 0.00 0.00 0.00 0.00 0.01 0.01 0.00 0.01 0.00 0.00 0.00 0.00 0.00 0.00 0.00 0.00 0.00 0.00 0.00 0.00 0.00 0.01 0.05 0.05 0.08 0.06 0.00 0.00 0.00
0.00 0.00 0.00 0.00 0.00 0.00 0.00 0.00 0.00 0.00 0.00 0.00 0.00 0.00 0.00 0.00 0.00 0.00 0.00 0.00 0.00 0.00 0.00 0.00 0.00 0.01 0.01 0.01 0.00 0.00 0.00 0.00 0.00 0.00 0.01 0.01 0.01 0.00 0.00 0.00 0.00 0.02 0.05 0.04 0.08 0.05 0.00 0.00 0.00
0.00 0.00 0.00 0.00 0.00 0.00 0.00 0.00 0.00 0.00 0.00 0.00 0.00 0.00 0.00 0.00 0.00 0.00 0.00 0.00 0.00 0.00 0.00 0.00 0.01 0.03 0.00 0.02 0.01 0.00 0.00 0.00 0.00 0.01 0.01 0.00 0.01 0.00 0.01 0.01 0.00 0.00 0.00 0.00 0.01 0.01 0.00 0.00 0.00
0.00 0.00 0.00 0.00 0.00 0.00 0.00 0.00 0.00 0.00 0.00 0.00 0.00 0.00 0.00 0.00 0.00 0.00 0.00 0.00 0.00 0.00 0.00 0.00 0.01 0.05 0.02 0.02 0.02 0.01 0.01 0.01 0.00 0.01 0.00 0.00 0.01 0.02 0.02 0.01 0.00 0.00 0.00 0.00 0.00 0.00 0.00 0.00 0.00
0.00 0.00 0.00 0.00 0.00 0.00 0.00 0.00 0.00 0.00 0.00 0.00 0.00 0.00 0.00 0.00 0.00 0.00 0.00 0.00 0.00 0.00 0.00 0.01 0.05 0.03 0.04 0.01 0.02 0.01 0.01 0.01 0.00 0.00 0.01 0.00 0.02 0.04 0.03 0.01 0.00 0.00 0.00 0.00 0.00 0.00 0.00 0.00 0.00
0.00 0.00 0.00 0.00 0.00 0.00 0.00 0.00 0.00 0.00 0.00 0.00 0.00 0.00 0.00 0.00 0.00 0.00 0.00 0.00 0.00 0.05 0.11 0.02 0.05 0.05 0.04 0.03 0.02 0.00 0.01 0.01 0.00 0.01 0.01 0.01 0.01 0.01 0.05 0.01 0.00 0.00 0.00 0.00 0.00 0.00 0.00 0.00 0.00
0.00 0.00 0.00 0.00 0.00 0.00 0.00 0.00 0.00 0.00 0.00 0.00 0.00 0.00 0.00 0.00 0.00 0.00 0.00 0.00 0.00 0.00 0.06 0.09 0.08 0.06 0.06 0.01 0.01 0.00 0.00 0.00 0.00 0.00 0.00 0.00 0.00 0.00 0.01 0.00 0.00 0.00 0.00 0.00 0.00 0.00 0.00 0.02 0.00
0.00 0.00 0.00 0.00 0.00 0.00 0.00 0.00 0.00 0.00 0.00 0.00 0.00 0.00 0.00 0.00 0.00 0.00 0.00 0.00 0.00 0.00 0.00 0.01 0.03 0.03 0.09 0.11 0.08 0.01 0.00 0.00 0.00 0.00 0.00 0.00 0.00 0.00 0.00 0.00 0.00 0.00 0.00 0.00 0.00 0.00 0.00 0.01 0.00
0.00 0.00 0.00 0.00 0.00 0.00 0.00 0.00 0.00 0.00 0.00 0.00 0.00 0.00 0.00 0.00 0.00 0.00 0.00 0.00 0.00 0.00 0.00 0.00 0.00 0.00 0.00 0.05 0.12 0.11 0.08 0.03 0.00 0.00 0.00 0.00 0.00 0.00 0.00 0.00 0.00 0.00 0.00 0.00 0.00 0.00 0.00 0.00 0.00
0.00 0.00 0.00 0.00 0.00 0.00 0.00 0.00 0.00 0.00 0.00 0.00 0.00 0.00 0.00 0.00 0.00 0.00 0.00 0.00 0.00 0.00 0.00 0.00 0.00 0.00 0.00 0.00 0.00 0.03 0.05 0.10 0.06 0.00 0.00 0.00 0.00 0.00 0.00 0.00 0.00 0.00 0.00 0.00 0.00 0.00 0.00 0.00 0.00
0.00 0.00 0.00 0.00 0.00 0.00 0.00 0.00 0.00 0.00 0.00 0.00 0.00 0.00 0.00 0.00 0.00 0.00 0.00 0.00 0.00 0.00 0.00 0.00 0.00 0.00 0.00 0.00 0.00 0.00 0.00 0.01 0.05 0.06 0.01 0.00 0.00 0.00 0.00 0.00 0.00 0.00 0.00 0.00 0.00 0.00 0.00 0.00 0.00
0.00 0.00 0.00 0.00 0.00 0.00 0.00 0.00 0.00 0.00 0.00 0.00 0.00 0.00 0.00 0.00 0.00 0.00 0.00 0.00 0.00 0.00 0.00 0.00 0.00 0.00 0.00 0.00 0.00 0.00 0.00 0.00 0.00 0.03 0.05 0.00 0.00 0.00 0.00 0.00 0.00 0.00 0.00 0.00 0.00 0.00 0.00 0.00 0.00
0.00 0.00 0.00 0.00 0.00 0.00 0.00 0.00 0.00 0.00 0.00 0.00 0.00 0.00 0.00 0.00 0.00 0.00 0.00 0.00 0.00 0.00 0.00 0.00 0.00 0.00 0.00 0.01 0.01 0.01 0.00 0.00 0.01 0.01 0.03 0.04 0.03 0.01 0.01 0.00 0.00 0.00 0.00 0.00 0.00 0.00 0.00 0.00 0.00
0.00 0.00 0.00 0.00 0.00 0.00 0.00 0.00 0.00 0.00 0.00 0.00 0.00 0.00 0.00 0.00 0.00 0.00 0.00 0.00 0.00 0.00 0.00 0.00 0.00 0.00 0.00 0.00 0.00 0.01 0.02 0.01 0.00 0.00 0.00 0.02 0.05 0.03 0.02 0.01 0.00 0.00 0.00 0.00 0.00 0.00 0.00 0.00 0.00
0.00 0.00 0.00 0.00 0.00 0.00 0.00 0.00 0.00 0.00 0.00 0.00 0.00 0.00 0.00 0.00 0.00 0.00 0.00 0.00 0.00 0.00 0.00 0.00 0.00 0.00 0.00 0.00 0.00 0.00 0.00 0.02 0.02 0.01 0.01 0.01 0.03 0.04 0.03 0.02 0.00 0.00 0.00 0.00 0.00 0.00 0.00 0.00 0.00
0.00 0.00 0.00 0.00 0.00 0.00 0.00 0.00 0.00 0.00 0.00 0.00 0.00 0.00 0.00 0.00 0.00 0.00 0.00 0.00 0.00 0.00 0.00 0.00 0.00 0.00 0.00 0.00 0.00 0.00 0.00 0.00 0.01 0.04 0.04 0.02 0.05 0.05 0.03 0.05 0.06 0.03 0.01 0.01 0.00 0.00 0.00 0.00 0.00
0.00 0.00 0.00 0.00 0.00 0.00 0.00 0.00 0.00 0.00 0.00 0.00 0.00 0.00 0.00 0.00 0.00 0.00 0.00 0.00 0.00 0.00 0.00 0.00 0.00 0.00 0.00 0.00 0.00 0.00 0.00 0.00 0.00 0.01 0.02 0.03 0.03 0.06 0.05 0.03 0.08 0.08 0.04 0.02 0.00 0.00 0.00 0.00 0.00
0.00 0.00 0.00 0.00 0.00 0.00 0.00 0.00 0.00 0.00 0.00 0.00 0.00 0.00 0.00 0.00 0.00 0.00 0.00 0.00 0.00 0.00 0.00 0.00 0.00 0.00 0.00 0.00 0.00 0.00 0.00 0.00 0.00 0.00 0.00 0.01 0.02 0.02 0.06 0.05 0.03 0.06 0.07 0.03 0.01 0.00 0.00 0.00 0.00
0.00 0.00 0.00 0.00 0.00 0.00 0.00 0.00 0.00 0.00 0.00 0.00 0.00 0.00 0.00 0.00 0.00 0.00 0.00 0.00 0.00 0.00 0.00 0.00 0.00 0.00 0.00 0.00 0.00 0.00 0.00 0.00 0.00 0.00 0.01 0.01 0.00 0.02 0.02 0.03 0.03 0.03 0.05 0.07 0.03 0.01 0.00 0.00 0.00
0.00 0.00 0.00 0.00 0.00 0.00 0.00 0.00 0.00 0.00 0.00 0.00 0.00 0.00 0.00 0.00 0.01 0.01 0.00 0.00 0.00 0.00 0.00 0.00 0.00 0.00 0.00 0.00 0.00 0.00 0.00 0.00 0.00 0.01 0.02 0.03 0.02 0.02 0.04 0.03 0.03 0.05 0.05 0.04 0.04 0.03 0.02 0.00 0.00
0.00 0.00 0.00 0.00 0.00 0.00 0.00 0.00 0.01 0.01 0.01 0.02 0.05 0.06 0.07 0.05 0.03 0.02 0.02 0.01 0.00 0.00 0.00 0.00 0.00 0.00 0.00 0.00 0.00 0.00 0.00 0.00 0.00 0.00 0.01 0.01 0.02 0.03 0.03 0.03 0.03 0.04 0.06 0.04 0.04 0.04 0.10 0.16 0.07
0.00 0.00 0.00 0.00 0.00 0.00 0.00 0.00 0.04 0.00 0.03 0.09 0.10 0.12 0.15 0.13 0.11 0.09 0.07 0.04 0.01 0.00 0.00 0.00 0.00 0.00 0.00 0.00 0.00 0.00 0.00 0.00 0.01 0.02 0.03 0.04 0.03 0.03 0.03 0.03 0.04 0.04 0.03 0.04 0.03 0.04 0.05 0.16 0.30
0.00 0.00 0.00 0.00 0.00 0.00 0.00 0.01 0.08 0.08 0.11 0.08 0.07 0.09 0.12 0.14 0.11 0.08 0.06 0.04 0.02 0.00 0.00 0.01 0.01 0.01 0.01 0.01 0.02 0.04 0.04 0.05 0.05 0.06 0.06 0.06 0.07 0.05 0.04 0.03 0.03 0.04 0.04 0.04 0.04 0.05 0.05 0.06 0.09
0.00 0.00 0.00 0.00 0.00 0.00 0.00 0.02 0.08 0.08 0.09 0.11 0.10 0.08 0.09 0.10 0.09 0.08 0.08 0.08 0.05 0.04 0.04 0.04 0.05 0.06 0.07 0.02 0.03 0.06 0.11 0.11 0.13 0.10 0.07 0.06 0.07 0.04 0.02 0.03 0.02 0.03 0.03 0.04 0.06 0.05 0.04 0.04 0.03
0.00 0.00 0.00 0.01 0.00 0.00 0.00 0.06 0.08 0.09 0.08 0.08 0.07 0.04 0.02 0.03 0.06 0.08 0.10 0.08 0.06 0.07 0.09 0.08 0.08 0.12 0.12 0.08 0.04 0.06 0.17 0.14 0.16 0.14 0.12 0.07 0.05 0.05 0.05 0.03 0.03 0.02 0.03 0.03 0.03 0.03 0.03 0.04 0.06
0.00 0.00 0.00 0.02 0.00 0.00 0.03 0.05 0.06 0.01 0.01 0.01 0.00 0.00 0.00 0.00 0.04 0.04 0.09 0.05 0.02 0.04 0.12 0.18 0.13 0.14 0.18 0.16 0.09 0.05 0.13 0.23 0.20 0.16 0.13 0.10 0.04 0.02 0.03 0.03 0.02 0.03 0.03 0.03 0.02 0.00 0.01 0.01 0.02
0.00 0.00 0.00 0.00 0.00 0.02 0.06 0.02 0.02 0.01 0.00 0.00 0.00 0.00 0.00 0.00 0.00 0.00 0.01 0.03 0.01 0.01 0.03 0.09 0.23 0.17 0.20 0.22 0.20 0.10 0.11 0.10 0.26 0.26 0.21 0.10 0.04 0.00 0.00 0.01 0.00 0.01 0.01 0.02 0.02 0.01 0.01 0.01 0.00
0.00 0.00 0.00 0.00 0.01 0.03 0.02 0.01 0.02 0.01 0.00 0.00 0.00 0.00 0.00 0.00 0.00 0.00 0.00 0.00 0.00 0.00 0.01 0.03 0.09 0.26 0.16 0.27 0.31 0.21 0.10 0.11 0.11 0.34 0.25 0.27 0.12 0.01 0.00 0.00 0.00 0.00 0.00 0.00 0.01 0.02 0.02 0.02 0.02
0.00 0.00 0.00 0.02 0.02 0.00 0.03 0.02 0.00 0.00 0.00 0.00 0.00 0.00 0.00 0.00 0.00 0.00 0.00 0.00 0.00 0.00 0.00 0.00 0.01 0.10 0.19 0.17 0.32 0.33 0.19 0.15 0.12 0.13 0.18 0.26 0.22 0.03 0.00 0.00 0.00 0.00 0.00 0.00 0.00 0.00 0.01 0.01 0.02
MSLP
1012.93 1013.07 1013.29 1013.93 1015.63 1016.17 1015.08 1013.19 1011.43 1010.31 1009.66 1008.84 1008.56 1008.48 1008.48 1008.52 1008.56 1009.09 1008.65 1008.66 1009.19 1009.55 1009.82 1010.21 1010.62 1010.84 1011.03 1011.37 1011.61 1011.87 1012.15 1012.47 1012.83 1013.11 1013.34 1013.61 1013.74 1014.04 1014.35 1014.60 1014.85 1015.02 1015.12 1015.39 1015.62 1015.86 1016.25 1016.52 1016.75
1013.26 1013.26 1013.92 1015.11 1016.26 1016.27 1014.37 1012.27 1010.91 1009.95 1009.32 1008.82 1008.55 1008.44 1008.42 1008.44 1008.42 1008.65 1008.65 1008.95 1008.85 1009.33 1009.85 1010.28 1010.58 1010.91 1011.16 1011.45 1011.79 1012.03 1012.25 1012.44 1012.79 1013.07 1013.32 1013.63 1013.89 1014.18 1014.51 1014.60 1014.89 1015.10 1015.20 1015.46 1015.77 1016.02 1016.39 1016.72 1016.95
1013.20 1013.58 1014.94 1015.78 1016.25 1015.65 1013.81 1011.74 1010.62 1009.56 1008.99 1008.69 1008.54 1008.33 1008.35 1008.57 1008.54 1008.63 1008.23 1008.84 1009.08 1009.44 1009.68 1010.18 1010.53 1010.84 1011.20 1011.58 1011.94 1012.21 1012.40 1012.62 1012.83 1013.01 1013.20 1013.60 1013.95 1014.24 1014.50 1014.68 1014.98 1015.18 1015.30 1015.57 1015.97 1016.27 1016.64 1016.89 1017.07
1013.61 1014.43 1015.67 1015.88 1015.71 1014.15 1012.83 1011.36 1010.31 1009.55 1009.08 1008.68 1008.56 1008.57 1008.37 1008.38 1008.23 1008.21 1008.53 1008.99 1009.31 1009.69 1009.74 1009.97 1010.30 1010.71 1011.03 1011.45 1011.86 1012.24 1012.51 1012.74 1012.92 1013.09 1013.29 1013.58 1013.93 1014.24 1014.52 1014.86 1015.15 1015.36 1015.61 1015.88 1016.19 1016.51 1016.84 1017.10 1017.29
1014.13 1015.25 1016.14 1016.22 1015.31 1013.63 1012.23 1010.94 1010.09 1009.64 1009.08 1008.78 1008.61 1008.66 1008.57 1008.37 1008.24 1008.21 1008.57 1009.06 1009.43 1009.84 1009.87 1010.07 1010.30 1010.60 1010.92 1011.37 1011.70 1012.09 1012.48 1012.75 1013.00 1013.26 1013.48 1013.65 1013.91 1014.22 1014.60 1015.03 1015.35 1015.56 1015.83 1016.13 1016.41 1016.68 1017.01 1017.25 1017.46
1014.93 1015.70 1016.53 1016.33 1014.93 1013.23 1011.92 1010.57 1010.05 1009.67 1009.14 1009.01 1009.07 1008.92 1008.68 1008.50 1008.52 1008.52 1008.78 1009.07 1009.39 1009.66 1009.87 1009.95 1010.24 1010.50 1010.96 1011.21 1011.56 1011.97 1012.38 1012.65 1013.00 1013.22 1013.47 1013.69 1013.92 1014.28 1014.61 1014.96 1015.39 1015.68 1015.97 1016.32 1016.54 1016.78 1017.11 1017.34 1017.55
1015.19 1016.04 1016.16 1015.64 1014.59 1013.25 1011.66 1010.49 1010.26 1009.88 1009.61 1009.41 1009.16 1009.21 1009.15 1009.01 1008.72 1008.67 1008.95 1009.09 1009.28 1009.43 1009.73 1009.88 1010.19 1010.50 1010.72 1011.21 1011.56 1011.86 1012.22 1012.52 1012.85 1013.18 1013.49 1013.68 1014.01 1014.27 1014.59 1014.89 1015.27 1015.60 1015.94 1016.36 1016.63 1016.84 1017.12 1017.40 1017.70
1015.03 1016.00 1016.08 1015.26 1014.30 1012.93 1011.67 1010.96 1010.49 1010.30 1009.83 1009.51 1009.36 1009.53 1009.49 1009.09 1009.12 1009.03 1009.02 1009.04 1009.22 1009.55 1009.56 1010.08 1010.27 1010.49 1010.80 1011.17 1011.51 1011.84 1012.20 1012.55 1012.78 1013.06 1013.45 1013.77 1014.07 1014.34 1014.63 1014.94 1015.23 1015.51 1015.93 1016.31 1016.65 1016.90 1017.11 1017.38 1017.84
1014.84 1015.93 1015.98 1014.76 1013.81 1012.48 1011.81 1011.56 1010.86 1010.72 1010.49 1010.03 1009.62 1009.49 1009.37 1009.29 1009.51 1009.33 1009.46 1009.74 1009.63 1009.62 1009.50 1009.80 1010.12 1010.26 1010.66 1011.11 1011.52 1011.86 1012.16 1012.51 1012.80 1013.09 1013.33 1013.69 1014.07 1014.39 1014.73 1014.92 1015.24 1015.52 1015.84 1016.30 1016.69 1016.94 1017.17 1017.42 1017.90
1015.24 1015.84 1015.05 1013.92 1013.03 1012.68 1012.24 1012.05 1011.74 1011.50 1011.09 1010.74 1010.36 1009.83 1009.70 1009.86 1009.75 1009.80 1009.89 1009.96 1010.01 1009.81 1009.70 1009.60 1009.88 1010.18 1010.54 1010.73 1011.21 1011.77 1012.09 1012.43 1012.77 1013.13 1013.41 1013.75 1014.06 1014.31 1014.66 1015.08 1015.37 1015.61 1015.80 1016.20 1016.63 1017.01 1017.31 1017.70 1017.97
1015.05 1014.94 1014.30 1013.53 1013.01 1012.67 1012.44 1012.13 1011.94 1011.71 1011.67 1011.44 1010.99 1010.41 1010.52 1010.44 1010.48 1010.34 1009.97 1009.88 1009.89 1009.77 1009.79 1009.75 1009.79 1009.92 1010.07 1010.60 1010.92 1011.27 1011.79 1012.26 1012.74 1013.06 1013.44 1013.76 1014.16 1014.32 1014.63 1015.13 1015.51 1015.80 1016.02 1016.33 1016.63 1017.05 1017.50 1017.91 1018.09
1015.05 1014.43 1014.36 1013.66 1013.09 1012.85 1012.67 1012.39 1011.87 1011.89 1011.68 1010.72 1010.72 1010.69 1010.83 1011.02 1011.11 1010.80 1010.48 1009.96 1009.73 1009.75 1009.72 1009.57 1009.70 1009.92 1010.05 1010.06 1010.52 1010.88 1011.23 1011.69 1012.28 1012.83 1013.27 1013.72 1014.18 1014.45 1014.60 1014.90 1015.41 1015.84 1016.15 1016.50 1016.78 1017.14 1017.54 1017.94 1018.10
1015.06 1014.76 1014.31 1013.85 1013.36 1013.04 1012.62 1012.45 1012.20 1011.90 1010.90 1010.75 1010.82 1010.80 1010.86 1010.83 1010.98 1010.73 1010.41 1009.93 1009.75 1009.65 1009.41 1009.28 1009.66 1009.77 1009.86 1010.19 1010.45 1010.69 1011.12 1011.35 1011.54 1012.08 1012.77 1013.28 1013.76 1014.37 1014.61 1014.80 1015.09 1015.57 1016.05 1016.41 1016.86 1017.16 1017.53 1017.97 1018.09
1014.99 1014.79 1014.56 1014.01 1013.32 1013.03 1012.48 1012.09 1012.35 1011.48 1010.56 1010.85 1010.87 1010.71 1010.60 1010.68 1010.67 1010.58 1010.41 1010.12 1009.85 1009.51 1009.34 1009.07 1009.11 1009.34 1009.71 1010.03 1010.15 1010.38 1010.62 1010.88 1011.25 1011.73 1011.98 1012.55 1013.12 1013.71 1014.26 1014.75 1014.93 1015.33 1015.74 1016.22 1016.60 1016.99 1017.47 1017.91 1018.19
1015.17 1014.95 1014.50 1013.63 1013.04 1012.95 1012.34 1012.53 1012.29 1011.03 1010.97 1010.89 1010.76 1010.72 1010.34 1010.39 1010.71 1011.61 1011.63 1011.36 1010.95 1010.24 1009.80 1009.66 1009.04 1008.83 1009.25 1009.59 1009.85 1009.91 1010.11 1010.52 1010.97 1011.19 1011.50 1011.81 1012.42 1013.08 1013.63 1014.24 1014.76 1014.97 1015.41 1016.03 1016.48 1016.94 1017.38 1017.89 1018.07
1015.73 1015.57 1015.30 1014.08 1013.61 1013.08 1013.24 1013.06 1012.57 1012.39 1012.22 1012.03 1011.70 1011.29 1010.90 1011.50 1012.20 1012.49 1012.41 1012.18 1011.96 1011.52 1011.02 1010.31 1009.75 1009.59 1009.55 1009.12 1009.37 1009.53 1009.64 1009.90 1010.46 1010.72 1011.07 1011.37 1011.83 1012.29 1013.09 1013.73 1014.25 1014.57 1015.07 1015.65 1016.27 1016.73 1017.31 1017.72 1017.95
1016.85 1016.66 1016.48 1015.90 1015.33 1015.64 1015.02 1014.26 1014.31 1013.79 1013.44 1013.40 1012.79 1012.53 1012.56 1013.51 1013.93 1014.09 1013.93 1013.55 1013.01 1012.56 1012.05 1011.49 1010.73 1010.19 1009.91 1009.65 1009.64 1009.14 1009.20 1009.46 1009.82 1010.26 1010.64 1010.95 1011.37 1011.87 1012.50 1013.22 1013.66 1014.06 1014.62 1015.15 1015.77 1016.46 1016.83 1017.41 1017.79
1019.18 1018.55 1018.16 1017.84 1017.85 1017.42 1016.74 1016.45 1016.23 1015.56 1015.09 1014.99 1015.25 1015.54 1015.59 1016.01 1016.46 1016.40 1015.79 1015.15 1014.37 1013.75 1013.16 1012.54 1012.00 1011.19 1010.56 1009.95 1009.52 1009.54 1009.68 1009.40 1009.35 1009.80 1010.12 1010.33 1010.89 1011.41 1012.00 1012.70 1013.37 1013.84 1014.44 1014.94 1015.38 1016.02 1016.54 1016.87 1017.43
1020.80 1020.45 1020.22 1020.06 1019.90 1019.12 1018.63 1018.34 1017.96 1017.72 1017.25 1017.84 1018.24 1018.20 1018.13 1018.09 1018.02 1017.57 1017.17 1016.55 1015.44 1014.62 1013.97 1013.48 1012.81 1012.18 1011.33 1010.58 1010.16 1009.76 1009.40 1009.41 1009.53 1009.38 1009.46 1009.86 1010.05 1010.67 1011.22 1012.05 1012.76 1013.49 1013.93 1014.39 1014.69 1015.40 1016.01 1016.89 1017.19
1022.43 1022.24 1021.92 1020.73 1020.84 1020.62 1019.36 1019.27 1019.90 1020.47 1021.04 1021.04 1020.79 1020.45 1020.01 1019.38 1019.10 1018.62 1018.00 1017.55 1016.77 1016.10 1015.41 1014.67 1013.75 1012.98 1012.24 1011.45 1010.75 1010.15 1009.49 1008.85 1008.67 1008.94 1009.03 1009.13 1009.32 1009.83 1010.68 1011.29 1012.10 1012.70 1013.46 1014.01 1014.57 1014.96 1015.55 1016.33 1016.65
1023.61 1023.68 1023.24 1022.75 1021.66 1021.08 1020.58 1020.78 1021.75 1022.90 1022.85 1022.56 1022.46 1022.33 1021.69 1021.31 1020.38 1019.74 1019.07 1018.72 1017.89 1017.11 1016.33 1015.73 1014.80 1013.80 1012.84 1012.07 1010.99 1009.87 1009.27 1008.88 1008.59 1008.51 1008.57 1008.69 1008.80 1009.15 1009.69 1010.74 1011.40 1012.22 1012.55 1013.47 1013.74 1014.51 1014.75 1015.37 1016.22
1024.35 1024.52 1024.24 1023.52 1023.01 1022.09 1022.15 1023.07 1023.96 1024.81 1024.63 1024.58 1024.43 1023.61 1022.92 1022.50 1021.89 1020.96 1020.42 1019.86 1019.47 1018.78 1017.62 1016.64 1015.70 1014.73 1013.70 1012.92 1012.00 1010.89 1009.65 1008.74 1007.92 1007.77 1007.99 1008.27 1008.37 1008.85 1009.33 1009.74 1010.66 1011.46 1012.15 1012.70 1013.32 1014.04 1014.18 1014.83 1015.83
1025.20 1024.72 1024.23 1023.69 1023.38 1023.31 1022.84 1023.69 1026.30 1026.54 1026.31 1026.48 1026.17 1025.40 1024.45 1023.78 1023.21 1022.29 1021.88 1021.48 1020.99 1019.79 1018.58 1017.69 1016.67 1015.62 1014.57 1013.91 1013.22 1011.60 1010.22 1008.72 1007.68 1007.47 1007.49 1007.59 1008.09 1008.61 1009.08 1009.46 1010.12 1010.79 1011.54 1012.00 1012.51 1013.08 1014.02 1014.46 1015.38
1025.35 1024.74 1023.76 1023.63 1023.93 1024.36 1024.70 1025.64 1027.60 1027.93 1028.65 1028.02 1027.39 1026.47 1025.74 1024.84 1024.04 1023.37 1022.88 1022.21 1021.67 1020.45 1019.12 1018.34 1017.45 1016.75 1015.49 1014.90 1013.99 1012.23 1010.93 1009.53 1007.90 1007.21 1007.12 1007.27 1007.69 1008.26 1008.69 1009.29 1009.86 1010.46 1011.00 1011.52 1012.06 1012.43 1013.21 1013.91 1014.53
1025.91 1025.85 1025.47 1025.66 1025.65 1025.72 1025.17 1027.12 1029.55 1029.78 1029.65 1029.35 1028.53 1027.71 1026.70 1025.83 1025.08 1024.34 1023.51 1022.99 1022.27 1020.68 1019.79 1019.12 1018.45 1017.27 1016.40 1015.61 1014.71 1013.00 1011.51 1010.17 1008.57 1007.20 1006.77 1006.91 1007.30 1007.84 1008.25 1008.91 1009.52 1010.11 1010.59 1011.13 1011.67 1012.26 1012.96 1013.23 1013.77
1026.77 1027.11 1027.63 1027.69 1027.30 1026.93 1026.64 1028.45 1030.66 1030.51 1030.33 1029.94 1029.23 1028.08 1026.95 1026.23 1025.71 1025.11 1024.31 1023.46 1022.16 1020.95 1020.62 1020.13 1019.19 1018.00 1017.26 1016.68 1015.46 1013.84 1011.97 1011.26 1009.80 1008.31 1006.86 1006.60 1006.67 1007.20 1007.71 1008.41 1009.11 1009.72 1010.20 1010.74 1011.28 1011.71 1012.33 1012.94 1013.39
1027.58 1027.75 1027.98 1028.14 1027.85 1028.23 1028.65 1030.23 1030.13 1030.26 1030.11 1029.43 1028.74 1028.06 1027.34 1026.37 1025.55 1024.89 1024.03 1023.19 1022.31 1021.47 1020.86 1020.71 1019.71 1018.91 1018.25 1017.13 1016.23 1014.32 1012.87 1012.16 1011.04 1009.64 1008.17 1006.67 1006.48 1006.90 1007.64 1008.26 1008.93 1009.51 1009.97 1010.35 1010.90 1011.35 1011.85 1012.51 1013.15
1028.70 1028.77 1028.57 1028.63 1029.12 1029.06 1030.12 1031.08 1031.92 1031.27 1030.46 1029.93 1029.25 1028.56 1027.48 1026.60 1026.04 1025.37 1024.48 1023.38 1022.65 1021.85 1021.26 1020.75 1020.18 1019.59 1018.70 1018.14 1016.82 1014.95 1013.84 1012.92 1012.30 1010.80 1009.81 1008.31 1006.92 1007.14 1007.69 1008.19 1008.80 1009.25 1009.86 1010.29 1010.65 1011.15 1011.58 1012.10 1012.83
1029.81 1029.81 1029.76 1029.91 1030.09 1030.60 1031.08 1032.50 1032.78 1032.89 1031.97 1030.93 1029.96 1028.99 1028.00 1027.37 1026.91 1026.01 1025.18 1024.21 1023.32 1022.35 1021.51 1020.66 1020.12 1019.50 1018.89 1018.00 1016.48 1015.86 1015.29 1013.75 1012.76 1012.01 1010.78 1010.55 1008.98 1007.70 1008.02 1008.15 1008.49 1009.15 1009.72 1010.09 1010.62 1010.89 1011.23 1011.70 1012.34
1031.07 1031.26 1030.95 1030.72 1031.04 1031.37 1032.07 1033.01 1033.09 1032.97 1032.25 1031.45 1030.38 1029.37 1028.41 1027.84 1027.14 1026.31 1025.69 1024.66 1023.58 1022.74 1021.70 1021.02 1020.40 1019.64 1019.26 1018.57 1017.39 1016.15 1013.80 1016.58 1014.37 1012.45 1011.93 1010.58 1010.34 1008.15 1008.52 1008.78 1008.58 1009.14 1009.63 1010.18 1010.58 1010.71 1010.93 1011.40 1011.91
Thickness
5704 5704 5703 5694 5666 5653 5657 5678 5701 5711 5713 5725 5727 5723 5720 5723 5722 5701 5742 5747 5745 5742 5740 5738 5734 5733 5734 5732 5733 5733 5732 5730 5727 5726 5725 5724 5725 5724 5723 5723 5722 5721 5723 5722 5722 5722 5720 5719 5718
5701 5702 5694 5675 5651 5646 5661 5686 5703 5710 5715 5720 5723 5722 5720 5717 5732 5733 5736 5740 5743 5739 5735 5732 5730 5729 5728 5728 5727 5727 5728 5728 5726 5724 5723 5722 5721 5720 5719 5720 5719 5719 5721 5721 5720 5719 5718 5716 5715
5700 5698 5679 5661 5642 5648 5664 5698 5703 5711 5717 5718 5716 5724 5721 5716 5728 5730 5741 5738 5736 5735 5731 5727 5725 5724 5723 5722 5721 5721 5722 5722 5722 5722 5722 5719 5717 5716 5716 5717 5717 5717 5719 5718 5717 5715 5714 5714 5713
5693 5684 5670 5658 5658 5671 5684 5692 5706 5706 5712 5718 5716 5709 5721 5728 5728 5734 5736 5733 5731 5728 5727 5726 5722 5719 5719 5717 5717 5716 5715 5716 5717 5718 5718 5716 5715 5714 5713 5713 5713 5714 5714 5714 5713 5712 5710 5710 5710
5687 5673 5655 5653 5657 5674 5687 5698 5702 5704 5706 5710 5713 5706 5710 5724 5730 5731 5729 5728 5724 5722 5722 5721 5719 5716 5714 5712 5712 5711 5710 5710 5711 5712 5713 5713 5712 5711 5710 5709 5709 5710 5710 5709 5709 5709 5707 5707 5707
5673 5667 5650 5647 5659 5675 5682 5696 5702 5699 5703 5704 5701 5703 5708 5722 5721 5723 5724 5721 5721 5717 5716 5716 5714 5712 5709 5708 5708 5707 5706 5706 5705 5707 5708 5709 5708 5707 5707 5707 5706 5706 5705 5704 5705 5706 5704 5704 5704
5668 5657 5651 5656 5659 5668 5683 5696 5693 5693 5692 5696 5702 5693 5703 5709 5717 5719 5717 5717 5716 5714 5712 5711 5710 5708 5706 5704 5702 5702 5701 5701 5701 5701 5701 5703 5703 5703 5703 5704 5703 5703 5702 5701 5701 5702 5701 5701 5700
5663 5655 5656 5655 5656 5665 5680 5686 5692 5690 5689 5697 5698 5683 5688 5702 5707 5709 5711 5711 5710 5707 5708 5705 5704 5704 5701 5699 5697 5697 5695 5694 5695 5695 5696 5696 5697 5698 5699 5699 5698 5698 5698 5697 5697 5697 5697 5698 5697
5665 5642 5637 5656 5660 5670 5677 5673 5684 5682 5681 5685 5691 5692 5695 5698 5698 5699 5698 5697 5700 5701 5703 5702 5700 5699 5697 5694 5691 5690 5690 5689 5689 5689 5689 5690 5691 5691 5692 5694 5694 5693 5694 5693 5692 5693 5693 5695 5693
5646 5628 5640 5655 5663 5661 5665 5664 5667 5666 5667 5672 5673 5684 5687 5686 5687 5687 5686 5685 5689 5691 5694 5697 5696 5695 5692 5690 5688 5685 5684 5683 5683 5682 5683 5683 5683 5685 5686 5687 5687 5688 5689 5688 5687 5687 5688 5688 5689
5642 5637 5645 5655 5655 5655 5652 5654 5655 5655 5650 5657 5660 5664 5667 5671 5671 5673 5677 5679 5680 5684 5686 5688 5689 5688 5689 5686 5684 5682 5679 5677 5676 5676 5676 5676 5675 5677 5679 5680 5680 5681 5681 5682 5682 5682 5682 5682 5684
5631 5643 5639 5645 5648 5644 5640 5641 5644 5641 5641 5660 5657 5658 5653 5649 5653 5659 5664 5670 5673 5673 5677 5681 5681 5681 5681 5681 5680 5679 5677 5674 5672 5670 5669 5668 5668 5669 5672 5673 5674 5674 5676 5676 5676 5676 5676 5676 5677
5625 5629 5633 5631 5633 5631 5632 5628 5628 5625 5646 5645 5640 5639 5637 5640 5640 5647 5655 5660 5663 5665 5669 5672 5671 5672 5674 5672 5671 5671 5671 5669 5669 5667 5665 5664 5663 5663 5664 5665 5667 5668 5669 5670 5669 5670 5669 5670 5670
5623 5618 5615 5618 5621 5617 5621 5624 5618 5627 5630 5628 5626 5627 5629 5630 5634 5636 5640 5647 5651 5655 5655 5659 5661 5662 5661 5663 5664 5664 5663 5663 5662 5660 5661 5661 5659 5659 5658 5659 5660 5661 5662 5663 5664 5664 5663 5663 5663
5612 5605 5607 5612 5613 5608 5611 5603 5603 5615 5612 5611 5612 5613 5618 5619 5618 5611 5614 5618 5626 5636 5641 5641 5648 5653 5652 5652 5654 5657 5656 5655 5656 5655 5655 5657 5656 5655 5655 5654 5654 5655 5656 5655 5657 5657 5657 5656 5657
5597 5593 5585 5600 5602 5602 5594 5586 5594 5587 5586 5585 5590 5596 5605 5594 5590 5586 5589 5593 5598 5606 5614 5623 5629 5633 5636 5643 5644 5646 5650 5649 5649 5649 5648 5650 5650 5651 5649 5649 5649 5649 5650 5649 5650 5651 5650 5649 5652
5575 5572 5570 5571 5571 5555 5566 5565 5561 5561 5561 5561 5569 5573 5569 5556 5553 5555 5557 5561 5567 5575 5584 5594 5605 5612 5618 5623 5626 5634 5638 5641 5642 5642 5642 5643 5643 5643 5643 5643 5643 5642 5643 5644 5645 5644 5645 5643 5644
5536 5544 5547 5543 5531 5524 5532 5525 5522 5527 5531 5530 5520 5508 5508 5508 5505 5510 5518 5527 5537 5545 5555 5565 5573 5586 5596 5605 5612 5616 5618 5625 5632 5634 5635 5637 5637 5636 5636 5636 5634 5634 5634 5636 5639 5638 5638 5639 5638
5510 5503 5492 5492 5493 5491 5493 5492 5486 5477 5479 5466 5460 5456 5456 5460 5465 5474 5479 5489 5505 5516 5527 5536 5546 5556 5569 5580 5588 5596 5605 5609 5614 5623 5628 5629 5633 5631 5630 5630 5629 5627 5628 5630 5634 5632 5631 5627 5632
5471 5460 5454 5474 5464 5460 5471 5465 5439 5417 5407 5408 5410 5415 5417 5423 5426 5434 5443 5452 5465 5476 5490 5503 5517 5529 5540 5552 5564 5574 5585 5597 5605 5610 5617 5622 5625 5626 5623 5622 5622 5623 5621 5623 5623 5625 5625 5623 5626
5446 5429 5428 5424 5437 5435 5427 5425 5390 5370 5368 5372 5371 5372 5375 5380 5388 5395 5403 5413 5425 5438 5451 5464 5480 5496 5511 5524 5541 5557 5567 5578 5589 5597 5606 5612 5616 5618 5618 5615 5615 5614 5618 5615 5619 5618 5622 5621 5619
5421 5412 5404 5401 5389 5392 5389 5348 5330 5324 5324 5322 5319 5330 5336 5342 5349 5363 5373 5380 5388 5400 5415 5430 5445 5461 5479 5493 5510 5527 5548 5564 5581 5589 5594 5598 5604 5607 5607 5611 5609 5607 5608 5610 5611 5612 5616 5616 5610
5394 5392 5384 5379 5364 5345 5370 5334 5283 5287 5285 5281 5283 5290 5301 5309 5320 5331 5339 5348 5357 5372 5388 5402 5415 5431 5447 5462 5478 5499 5521 5547 5562 5572 5579 5585 5589 5593 5597 5599 5600 5600 5600 5604 5606 5608 5607 5609 5604
5374 5366 5367 5354 5333 5281 5314 5308 5256 5260 5258 5262 5268 5275 5280 5290 5302 5309 5312 5321 5332 5348 5364 5376 5389 5400 5420 5433 5450 5475 5496 5517 5545 5560 5568 5573 5577 5580 5585 5586 5588 5589 5591 5594 5597 5601 5601 5602 5601
5342 5325 5304 5282 5260 5297 5317 5275 5238 5241 5245 5248 5254 5259 5268 5276 5283 5288 5297 5304 5315 5332 5343 5353 5365 5380 5394 5409 5426 5449 5474 5497 5522 5544 5555 5561 5565 5569 5573 5574 5576 5578 5582 5584 5587 5589 5590 5594 5596
5310 5294 5260 5248 5250 5255 5280 5244 5223 5234 5236 5238 5244 5256 5266 5268 5269 5273 5281 5290 5306 5321 5326 5334 5347 5360 5371 5384 5403 5426 5453 5469 5491 5515 5539 5548 5555 5559 5560 5564 5566 5568 5572 5574 5577 5581 5583 5584 5585
5295 5280 5279 5265 5258 5254 5263 5236 5244 5239 5238 5243 5245 5250 5254 5263 5267 5271 5278 5283 5295 5306 5314 5319 5332 5342 5352 5368 5384 5408 5430 5447 5466 5487 5509 5529 5539 5544 5546 5549 5553 5556 5559 5565 5567 5571 5575 5575 5575
5273 5271 5253 5257 5222 5256 5244 5232 5213 5220 5230 5233 5235 5236 5246 5254 5257 5261 5268 5277 5285 5295 5305 5312 5320 5328 5337 5350 5368 5394 5411 5428 5445 5464 5481 5501 5521 5528 5533 5538 5541 5546 5548 5552 5557 5560 5564 5567 5567
5260 5246 5250 5248 5256 5242 5248 5170 5196 5198 5207 5216 5222 5229 5236 5241 5243 5250 5255 5264 5273 5284 5295 5307 5315 5322 5329 5346 5365 5378 5390 5411 5430 5443 5460 5469 5492 5511 5518 5526 5532 5534 5538 5542 5545 5551 5555 5558 5558
5244 5228 5234 5234 5238 5246 5228 5204 5198 5183 5194 5209 5215 5221 5231 5235 5238 5242 5246 5255 5264 5272 5287 5297 5306 5315 5320 5332 5346 5367 5394 5377 5405 5429 5439 5456 5471 5492 5500 5509 5520 5522 5526 5528 5532 5540 5545 5548 5549